Home > Weather > Hohenems > Past weeks

Flag for Austria Past Weather in Hohenems, Vorarlberg, Austria — Yesterday and Last 2 Weeks

Now
72 °F

Mild.


Feels Like: 73 °F
Forecast: 65 / 88 °F
Wind: 1 mph from North

Location: Feldkirch

Current Time: Aug 27, 2016 at 10:46:58 PM

Latest Report: Aug 27, 2016 at 10:00 PM


Visibility: N/A

Pressure: 30.01 "Hg

Humidity: 76%

Dew Point: 64 °F

Location of HohenemsLocation

Past Weather in Hohenems — Graph

°F

Hohenems Temperature Yesterday

Maximum temperature yesterday: 87 °F (at 3:00 PM)
Minimum temperature yesterday: 64 °F (at 7:00 AM)
Average temperature yesterday: 75 °F

High & Low Weather Summary for the Past Weeks

 TemperatureHumidityPressure
High87 °F (Aug 26, 3:00 PM)98% (Aug 25, 7:00 AM)30.39 "Hg (Aug 25, 7:00 AM)
Low53 °F (Aug 13, 6:00 AM)50% (Aug 13, 3:00 PM)29.77 "Hg (Aug 18, 2:00 PM)
Average68 °F75%30.07 "Hg
* Reported Aug 12 9:00 PM — Aug 27 9:00 PM, Hohenems, Weather by CustomWeather, © 2016

Note: Actual official high and low records may vary slightly from our data, if they occured in-between our weather recording intervals... More about our weather records

Advertising

Hohenems Weather History for the Previous 24 Hours

Scroll right to see more
 ConditionsComfort  
Time TempWeatherWind HumidityBarometerVisibility
9:00 PM
Sat, Aug 27
75 °FMild.No wind77%29.99 "HgN/A
8:00 PM78 °FWarm.No wind69%29.96 "HgN/A
7:00 PM82 °FWarm.1 mph61%29.94 "HgN/A
6:00 PM84 °FWarm.1 mph58%29.95 "HgN/A
5:00 PM85 °FWarm.3 mph58%29.96 "HgN/A
4:00 PM85 °FWarm.2 mph57%29.96 "HgN/A
3:00 PM85 °FWarm.2 mph55%29.97 "HgN/A
2:00 PM85 °FWarm.1 mph51%29.99 "HgN/A
1:00 PM83 °FWarm.1 mph51%30.01 "HgN/A
12:00 PM81 °FWarm.1 mph53%30.03 "HgN/A
11:00 AM79 °FPassing clouds.1 mph58%30.05 "Hg19 mi
10:00 AM75 °FMild.1 mph57%30.06 "HgN/A
9:00 AM69 °FMild.1 mph71%30.07 "HgN/A
8:00 AM64 °FMild.1 mph83%30.09 "HgN/A
7:00 AM62 °FSunny.No wind86%30.08 "Hg19 mi
5:00 AM65 °FMild.1 mph75%30.08 "HgN/A
4:00 AM65 °FMild.No wind78%30.09 "HgN/A
3:00 AM65 °FMild.1 mph80%30.09 "HgN/A
2:00 AM66 °FMild.No wind79%30.08 "HgN/A
1:00 AM68 °FMild.1 mph74%30.07 "HgN/A
10:00 PM
Fri, Aug 26
71 °FMild.No wind80%30.04 "HgN/A
Weather by CustomWeather, © 2016

See weather overviewHow to use our weather pages